Location: Buch
(50.1863°N, 11.0141°E)
Time: 12:48:12
(UTC+00:00)

Cosmos 2227 Rocket - Pass Details

Date: 18 January 2020
Orbit: 841 x 843 km, 71.0° (Epoch: 16 February)

Event Time Altitude Azimuth Distance (km) Brightness Sun altitude
Exits shadow 02:52:50 20° 106° (ESE) 1,864 4.4 -40.0°
Drops below altitude 10° 02:54:40 10° 117° (ESE) 2,457 5.0 -39.7°
Sets 02:57:17 0° 126° (SE) 3,389 5.8 -39.3°
